When you browse on this site, cookies collect data to enhance your experience and personalize the content and advertising you see.
Visit our Privacy Policy to learn more. By continuing to use the site, you agree to this use of cookies and data.
  • In Hungary
  • List of Countries
  • For 7 days
  • Water Temperature
  • Weather Map
  • News
  • Weather Widgets
  • user-avatar
    Login

    Hourly Weather Coalville

    Today, 18 August, Sunday

    Time Temperature Precipitation Wind Pressure Humidity
    00:00 +13°C° 0 mm 4 mps 738 mmHg 82%
    01:00 +12°C° 0 mm 3 mps 738 mmHg 84%
    02:00 +12°C° 0 mm 3 mps 737 mmHg 86%
    03:00 +11°C° 0 mm 3 mps 737 mmHg 89%
    04:00 +12°C° 0 mm 3 mps 737 mmHg 88%
    05:00 +12°C° 0 mm 3 mps 737 mmHg 88%
    06:00 +12°C° 0 mm 3 mps 737 mmHg 87%
    07:00 +13°C° 0.1 mm 4 mps 737 mmHg 82%
    08:00 +14°C° 0.1 mm 5 mps 737 mmHg 77%
    09:00 +15°C° 0.1 mm 6 mps 737 mmHg 72%
    10:00 +16°C° 0.1 mm 6 mps 737 mmHg 68%
    11:00 +17°C° 0.1 mm 7 mps 737 mmHg 64%
    12:00 +18°C° 0.1 mm 7 mps 737 mmHg 60%
    13:00 +18°C° 0.1 mm 7 mps 738 mmHg 59%
    14:00 +18°C° 0.1 mm 8 mps 738 mmHg 58%
    15:00 +18°C° 0.1 mm 8 mps 738 mmHg 57%
    16:00 +18°C° 0 mm 7 mps 738 mmHg 60%
    17:00 +17°C° 0 mm 7 mps 738 mmHg 64%
    18:00 +16°C° 0 mm 6 mps 739 mmHg 67%
    19:00 +15°C° 0 mm 6 mps 739 mmHg 70%
    20:00 +14°C° 0 mm 5 mps 739 mmHg 74%
    21:00 +13°C° 0 mm 5 mps 740 mmHg 77%
    22:00 +12°C° 0 mm 5 mps 740 mmHg 79%
    23:00 +12°C° 0 mm 5 mps 740 mmHg 80%

    Tomorrow, 19 August, Monday

    Time Temperature Precipitation Wind Pressure Humidity
    00:00 +12°C° 0 mm 5 mps 741 mmHg 82%
    01:00 +12°C° 0 mm 5 mps 741 mmHg 84%
    02:00 +12°C° 0 mm 5 mps 741 mmHg 87%
    03:00 +10°C° 0 mm 5 mps 741 mmHg 89%
    04:00 +10°C° 0 mm 5 mps 742 mmHg 89%
    05:00 +11°C° 0 mm 4 mps 742 mmHg 89%
    06:00 +11°C° 0 mm 4 mps 743 mmHg 89%
    07:00 +12°C° 0 mm 4 mps 743 mmHg 83%
    08:00 +14°C° 0 mm 4 mps 744 mmHg 77%
    09:00 +15°C° 0 mm 4 mps 744 mmHg 70%
    10:00 +16°C° 0 mm 5 mps 744 mmHg 66%
    11:00 +17°C° 0 mm 5 mps 745 mmHg 62%
    12:00 +19°C° 0 mm 5 mps 745 mmHg 58%
    13:00 +19°C° 0.3 mm 5 mps 745 mmHg 59%
    14:00 +19°C° 0.3 mm 6 mps 745 mmHg 59%
    15:00 +19°C° 0.3 mm 6 mps 745 mmHg 60%
    16:00 +17°C° 0.1 mm 5 mps 746 mmHg 62%
    17:00 +16°C° 0.1 mm 5 mps 746 mmHg 64%
    18:00 +15°C° 0.1 mm 4 mps 746 mmHg 67%
    19:00 +14°C° 0 mm 4 mps 747 mmHg 70%
    20:00 +13°C° 0 mm 4 mps 747 mmHg 74%
    21:00 +12°C° 0 mm 4 mps 748 mmHg 77%
    22:00 +11°C° 0 mm 4 mps 748 mmHg 80%
    23:00 +11°C° 0 mm 4 mps 748 mmHg 82%

    Day after tomorrow, 20 August, Tuesday

    Time Temperature Precipitation Wind Pressure Humidity
    00:00 +10°C° 0 mm 4 mps 748 mmHg 84%
    01:00 +10°C° 0 mm 3 mps 749 mmHg 86%
    02:00 +10°C° 0 mm 3 mps 749 mmHg 87%
    03:00 +9°C° 0 mm 3 mps 749 mmHg 88%
    04:00 +9°C° 0 mm 3 mps 749 mmHg 88%
    05:00 +9°C° 0 mm 3 mps 750 mmHg 88%
    06:00 +8°C° 0 mm 4 mps 750 mmHg 87%
    07:00 +11°C° 0 mm 4 mps 750 mmHg 82%
    08:00 +12°C° 0 mm 4 mps 751 mmHg 76%
    09:00 +14°C° 0 mm 5 mps 751 mmHg 71%
    10:00 +15°C° 0.1 mm 5 mps 751 mmHg 69%
    11:00 +15°C° 0.1 mm 5 mps 752 mmHg 66%
    12:00 +16°C° 0.1 mm 5 mps 752 mmHg 64%
    13:00 +17°C° 0.1 mm 5 mps 752 mmHg 61%
    14:00 +17°C° 0.1 mm 5 mps 752 mmHg 58%
    15:00 +17°C° 0.1 mm 5 mps 752 mmHg 55%
    16:00 +18°C° 0 mm 4 mps 752 mmHg 59%
    17:00 +17°C° 0 mm 3 mps 753 mmHg 64%
    18:00 +17°C° 0 mm 3 mps 753 mmHg 68%
    19:00 +16°C° 0 mm 3 mps 753 mmHg 74%
    20:00 +14°C° 0 mm 3 mps 754 mmHg 80%
    21:00 +12°C° 0 mm 3 mps 754 mmHg 85%
    22:00 +12°C° 0 mm 3 mps 754 mmHg 87%
    23:00 +12°C° 0 mm 3 mps 754 mmHg 89%

    21 August, Wednesday

    Time Temperature Precipitation Wind Pressure Humidity
    00:00 +12°C° 0 mm 3 mps 754 mmHg 91%
    01:00 +11°C° 0 mm 3 mps 754 mmHg 92%
    02:00 +11°C° 0 mm 3 mps 754 mmHg 92%
    03:00 +11°C° 0 mm 3 mps 754 mmHg 92%
    04:00 +11°C° 0 mm 3 mps 754 mmHg 91%
    05:00 +12°C° 0 mm 3 mps 754 mmHg 91%
    06:00 +12°C° 0 mm 3 mps 754 mmHg 90%
    07:00 +13°C° 0 mm 3 mps 754 mmHg 85%
    08:00 +15°C° 0 mm 4 mps 754 mmHg 80%
    09:00 +17°C° 0 mm 4 mps 754 mmHg 74%
    10:00 +18°C° 0.2 mm 4 mps 754 mmHg 70%
    11:00 +19°C° 0.2 mm 5 mps 754 mmHg 66%
    12:00 +20°C° 0.2 mm 5 mps 754 mmHg 62%
    13:00 +20°C° 0.1 mm 5 mps 753 mmHg 61%
    14:00 +20°C° 0.1 mm 5 mps 753 mmHg 60%
    15:00 +20°C° 0.1 mm 6 mps 753 mmHg 58%
    16:00 +19°C° 0.1 mm 5 mps 753 mmHg 62%
    17:00 +19°C° 0.1 mm 4 mps 753 mmHg 66%
    18:00 +18°C° 0.1 mm 4 mps 753 mmHg 70%
    19:00 +17°C° 0 mm 3 mps 753 mmHg 72%
    20:00 +16°C° 0 mm 3 mps 753 mmHg 74%
    21:00 +14°C° 0 mm 3 mps 753 mmHg 76%
    22:00 +14°C° 0 mm 3 mps 753 mmHg 78%
    23:00 +13°C° 0 mm 3 mps 753 mmHg 80%

    22 August, Thursday

    Time Temperature Precipitation Wind Pressure Humidity
    00:00 +13°C° 0 mm 3 mps 753 mmHg 82%
    01:00 +13°C° 0 mm 3 mps 753 mmHg 82%
    02:00 +13°C° 0 mm 3 mps 753 mmHg 83%
    03:00 +13°C° 0 mm 4 mps 752 mmHg 84%
    04:00 +13°C° 0 mm 4 mps 753 mmHg 86%
    05:00 +12°C° 0 mm 4 mps 753 mmHg 87%
    06:00 +12°C° 0 mm 4 mps 753 mmHg 89%
    07:00 +13°C° 0 mm 4 mps 753 mmHg 85%
    08:00 +15°C° 0 mm 4 mps 753 mmHg 82%
    09:00 +17°C° 0 mm 4 mps 754 mmHg 78%
    10:00 +18°C° 0 mm 4 mps 753 mmHg 74%
    11:00 +19°C° 0 mm 4 mps 753 mmHg 69%
    12:00 +20°C° 0 mm 5 mps 753 mmHg 65%
    13:00 +20°C° 0.1 mm 5 mps 753 mmHg 63%
    14:00 +21°C° 0.1 mm 5 mps 753 mmHg 62%
    15:00 +21°C° 0.1 mm 5 mps 753 mmHg 61%
    16:00 +21°C° 0.1 mm 4 mps 753 mmHg 65%
    17:00 +20°C° 0.1 mm 4 mps 753 mmHg 69%
    18:00 +19°C° 0.1 mm 3 mps 753 mmHg 74%
    19:00 +18°C° 0 mm 3 mps 753 mmHg 78%
    20:00 +17°C° 0 mm 3 mps 753 mmHg 82%
    21:00 +16°C° 0 mm 3 mps 753 mmHg 86%
    22:00 +14°C° 0 mm 3 mps 753 mmHg 88%
    23:00 +14°C° 0 mm 3 mps 753 mmHg 90%

    23 August, Friday

    Time Temperature Precipitation Wind Pressure Humidity
    00:00 +14°C° 0 mm 3 mps 753 mmHg 92%
    01:00 +14°C° 0 mm 2 mps 753 mmHg 92%
    02:00 +14°C° 0 mm 2 mps 752 mmHg 93%
    03:00 +14°C° 0 mm 2 mps 752 mmHg 94%
    04:00 +14°C° 0 mm 2 mps 752 mmHg 94%
    05:00 +14°C° 0 mm 2 mps 752 mmHg 94%
    06:00 +14°C° 0 mm 2 mps 752 mmHg 94%
    07:00 +15°C° 0 mm 2 mps 752 mmHg 89%
    08:00 +17°C° 0 mm 3 mps 753 mmHg 84%
    09:00 +18°C° 0 mm 3 mps 753 mmHg 79%
    10:00 +19°C° 0 mm 3 mps 753 mmHg 72%
    11:00 +20°C° 0 mm 3 mps 752 mmHg 65%
    12:00 +22°C° 0 mm 3 mps 752 mmHg 58%
    13:00 +22°C° 0 mm 4 mps 752 mmHg 55%
    14:00 +22°C° 0 mm 4 mps 752 mmHg 51%
    15:00 +22°C° 0 mm 4 mps 751 mmHg 48%
    16:00 +22°C° 0 mm 3 mps 751 mmHg 52%
    17:00 +21°C° 0 mm 3 mps 751 mmHg 57%
    18:00 +20°C° 0 mm 2 mps 751 mmHg 61%
    19:00 +19°C° 0 mm 2 mps 751 mmHg 64%
    20:00 +18°C° 0 mm 1 mps 751 mmHg 67%
    21:00 +16°C° 0 mm 1 mps 751 mmHg 70%
    22:00 +16°C° 0 mm 1 mps 751 mmHg 71%
    23:00 +15°C° 0 mm 1 mps 751 mmHg 73%
    Show more